sat.trackr.live / text

‹ back to catalog

STARLINK-11429 [DTC]

NORAD 62061 · 2024-217E

PAYLOAD ACTIVE UNKNOWN

§ Identity

Operator
Country
US
Launch date
2024-11-24
Launch site
AFWTR
Launch vehicle
Mass (kg)
RCS (m²)

Purposes: comms

External: N2YO · Heavens-Above · Gunter

§ Orbital elements

Epoch: 2026-09-21T06:56:24.580032Z

Period
91.73 min
Inclination
53.1575°
Eccentricity
0.0001709
Mean motion
15.69764063 rev/d
Perigee alt
358.4 km
Apogee alt
360.7 km
Semi-major
6,737.7 km
B*
9.8578e-4
RAAN
187.1043°
Arg perigee
139.4638°
Mean anomaly
220.6507°
Rev number
10,589

§ Raw data

STARLINK-11429 [DTC]1 62061U 24217E   26264.28917338  .00120864  00000+0  98578-3 0  99922 62061  53.1575 187.1043 0001709 139.4638 220.6507 15.69764063105890

JSON: /api/v1/satellites/62061 · /tle

For live sub-satellite position, see the globe view (requires WebGL).

§ Visibility from observer

Set your observer location to see the next 7 days of passes ≥ 10°. The values pass through the URL so the page stays shareable.

No JS? Fill the form by hand. The geolocation button needs JavaScript.